map of BJY home
BJY - Airport
Location
City:  Batajnica, Serbia
Near (Alt.):Nova Pazova
Name:Batajnia AB
ICAO:LYBT
IATA:BJY

Details
Type:Airport (Aerodrome, Airfield)
Use:Military
Latitude:4456'07"N (44.935331)
Longitude:2015'27"E (20.257506)
Datum:WGS 1984
Elevation:265 ft (81 m)
Variation:4.79E (WMM2015 magnetic declination)
0.11 annual change
Runways:3
Longest:8181 × 148 ft (2494 × 45 m), paved

Time
Time Zone:UTC+1 (DST+2)
Local Time:

Weather
METAR:LYBT 150630Z 13002KT 1200 R12/1600D R30/1700N SN BKN004 OVC024 M00/M00 Q1017 12/////// NOSIG
TAF:LYBT 150500Z 1506/1606 14006KT 2000 SN BKN005 OVC025 TX00/1512Z TNM02/1606Z
TEMPO 1512/1518 0800 +SN BKN003 OVC023
BECMG 1518/1520 27010KT 3000 -SN BKN010 OVC030

Related Locations
Nearby:
Farthest:CHT: 11610 mi / 18685 km
Waitangi [Tuuta], CIT, NZ

Find:

   beyond  
but within

Other Information
Maps:
NOTAMs:
Links:
Sources:

  
  • flag of Serbia
  

Sectional Chart

Flight Planning
at skyvector.com

Satellite Image

Google Maps Satellite view

 

Copyright © 2004-2018 Karl L. Swartz. All rights reserved.
The Great Circle Mapper name and logo are trademarks of the Great Circle Mapper.
All other trademarks mentioned herein belong to their respective owners.
Please see credits for attibutions and further copyright information.

  Follow gcmap on Facebook Follow gcmap on Twitter Follow gcmap on Google+ GCmap on LinkedIn

hCard Microformat

Geo Microformat